When you browse on this site, cookies collect data to enhance your experience and personalize the content and advertising you see.
Visit our Privacy Policy to learn more. By continuing to use the site, you agree to this use of cookies and data.
  • en France
  • Liste des pays
  • À 7 jours
  • Température de l'eau
  • Carte satellitaire
  • Carte météo
  • Widgets météo
  • user-avatar
    Se connecter

    Météo par heure à El-Obejd

    Ce jour, 18 Juin, Mardi

    Heure Température Précipitation Vent Pression Humidité
    00:00 +33°C° 0 mm 5 m/s 710 mmHg 51%
    01:00 +32°C° 0 mm 5 m/s 710 mmHg 53%
    02:00 +32°C° 0 mm 4 m/s 710 mmHg 56%
    03:00 +30°C° 0 mm 4 m/s 710 mmHg 56%
    04:00 +30°C° 0 mm 5 m/s 710 mmHg 56%
    05:00 +30°C° 0 mm 5 m/s 711 mmHg 56%
    06:00 +30°C° 0 mm 5 m/s 711 mmHg 57%
    07:00 +30°C° 0 mm 6 m/s 712 mmHg 58%
    08:00 +30°C° 0 mm 6 m/s 712 mmHg 59%
    09:00 +32°C° 0 mm 6 m/s 713 mmHg 56%
    10:00 +33°C° 0 mm 5 m/s 713 mmHg 53%
    11:00 +33°C° 0 mm 5 m/s 713 mmHg 50%
    12:00 +34°C° 0 mm 5 m/s 713 mmHg 48%
    13:00 +34°C° 0 mm 6 m/s 712 mmHg 45%
    14:00 +35°C° 0 mm 6 m/s 712 mmHg 43%
    15:00 +35°C° 0 mm 6 m/s 711 mmHg 43%
    16:00 +35°C° 0 mm 5 m/s 710 mmHg 42%
    17:00 +35°C° 0 mm 4 m/s 710 mmHg 42%
    18:00 +34°C° 0 mm 4 m/s 710 mmHg 43%
    19:00 +34°C° 0 mm 4 m/s 710 mmHg 45%
    20:00 +33°C° 0 mm 4 m/s 710 mmHg 46%
    21:00 +33°C° 0 mm 4 m/s 711 mmHg 48%
    22:00 +32°C° 0 mm 4 m/s 711 mmHg 49%
    23:00 +32°C° 0 mm 4 m/s 711 mmHg 50%

    Demain, 19 Juin, Mercredi

    Heure Température Précipitation Vent Pression Humidité
    00:00 +30°C° 0 mm 4 m/s 710 mmHg 52%
    01:00 +30°C° 0 mm 4 m/s 710 mmHg 54%
    02:00 +29°C° 0 mm 4 m/s 710 mmHg 56%
    03:00 +29°C° 0 mm 4 m/s 710 mmHg 56%
    04:00 +29°C° 0 mm 4 m/s 709 mmHg 57%
    05:00 +28°C° 0 mm 4 m/s 709 mmHg 57%
    06:00 +29°C° 0 mm 4 m/s 710 mmHg 54%
    07:00 +30°C° 0 mm 4 m/s 711 mmHg 50%
    08:00 +32°C° 0 mm 5 m/s 711 mmHg 47%
    09:00 +33°C° 0 mm 5 m/s 711 mmHg 43%
    10:00 +35°C° 0 mm 5 m/s 711 mmHg 38%
    11:00 +36°C° 0 mm 4 m/s 711 mmHg 34%
    12:00 +37°C° 0 mm 4 m/s 711 mmHg 32%
    13:00 +38°C° 0 mm 4 m/s 710 mmHg 30%
    14:00 +39°C° 0 mm 3 m/s 710 mmHg 27%
    15:00 +39°C° 0 mm 3 m/s 709 mmHg 26%
    16:00 +39°C° 0 mm 2 m/s 709 mmHg 25%
    17:00 +39°C° 0 mm 2 m/s 709 mmHg 24%
    18:00 +38°C° 0 mm 2 m/s 709 mmHg 26%
    19:00 +37°C° 0 mm 2 m/s 709 mmHg 27%
    20:00 +37°C° 0 mm 2 m/s 709 mmHg 29%
    21:00 +36°C° 0 mm 3 m/s 709 mmHg 31%
    22:00 +35°C° 0 mm 4 m/s 710 mmHg 34%
    23:00 +34°C° 0 mm 5 m/s 710 mmHg 37%

    Après-demain, 20 Juin, Jeudi

    Heure Température Précipitation Vent Pression Humidité
    00:00 +34°C° 0 mm 5 m/s 709 mmHg 40%
    01:00 +33°C° 0 mm 5 m/s 709 mmHg 43%
    02:00 +32°C° 0 mm 5 m/s 709 mmHg 47%
    03:00 +32°C° 0 mm 5 m/s 709 mmHg 48%
    04:00 +30°C° 0 mm 4 m/s 709 mmHg 50%
    05:00 +30°C° 0 mm 4 m/s 709 mmHg 52%
    06:00 +30°C° 0 mm 5 m/s 709 mmHg 51%
    07:00 +32°C° 0 mm 6 m/s 710 mmHg 49%
    08:00 +33°C° 0 mm 6 m/s 710 mmHg 48%
    09:00 +35°C° 0 mm 6 m/s 711 mmHg 43%
    10:00 +36°C° 0 mm 5 m/s 711 mmHg 37%
    11:00 +39°C° 0 mm 5 m/s 711 mmHg 32%
    12:00 +40°C° 0 mm 4 m/s 710 mmHg 29%
    13:00 +41°C° 0 mm 4 m/s 710 mmHg 26%
    14:00 +42°C° 0 mm 3 m/s 709 mmHg 23%
    15:00 +42°C° 0 mm 3 m/s 709 mmHg 21%
    16:00 +41°C° 0 mm 2 m/s 708 mmHg 20%
    17:00 +41°C° 0 mm 1 m/s 708 mmHg 19%
    18:00 +41°C° 0 mm 1 m/s 708 mmHg 20%
    19:00 +40°C° 0 mm 2 m/s 708 mmHg 21%
    20:00 +39°C° 0 mm 2 m/s 708 mmHg 23%
    21:00 +38°C° 0 mm 3 m/s 709 mmHg 26%
    22:00 +37°C° 0 mm 5 m/s 709 mmHg 29%
    23:00 +36°C° 0 mm 6 m/s 709 mmHg 32%

    21 Juin, Vendredi

    Heure Température Précipitation Vent Pression Humidité
    00:00 +36°C° 0 mm 6 m/s 708 mmHg 35%
    01:00 +35°C° 0 mm 6 m/s 708 mmHg 38%
    02:00 +34°C° 0 mm 6 m/s 708 mmHg 41%
    03:00 +34°C° 0 mm 6 m/s 708 mmHg 43%
    04:00 +33°C° 0 mm 5 m/s 708 mmHg 45%
    05:00 +32°C° 0 mm 5 m/s 708 mmHg 47%
    06:00 +33°C° 0 mm 6 m/s 709 mmHg 47%
    07:00 +33°C° 0 mm 6 m/s 709 mmHg 47%
    08:00 +34°C° 0 mm 7 m/s 710 mmHg 46%
    09:00 +35°C° 0 mm 7 m/s 710 mmHg 43%
    10:00 +38°C° 0 mm 7 m/s 710 mmHg 39%
    11:00 +39°C° 0 mm 8 m/s 711 mmHg 36%
    12:00 +40°C° 0 mm 7 m/s 710 mmHg 33%
    13:00 +41°C° 0 mm 6 m/s 709 mmHg 31%
    14:00 +41°C° 0 mm 6 m/s 709 mmHg 28%
    15:00 +41°C° 0 mm 5 m/s 708 mmHg 27%
    16:00 +41°C° 0 mm 4 m/s 708 mmHg 26%
    17:00 +40°C° 0 mm 3 m/s 707 mmHg 24%
    18:00 +40°C° 0 mm 3 m/s 707 mmHg 26%
    19:00 +40°C° 0 mm 4 m/s 707 mmHg 27%
    20:00 +38°C° 0 mm 4 m/s 707 mmHg 29%
    21:00 +37°C° 0 mm 5 m/s 707 mmHg 35%
    22:00 +35°C° 0 mm 6 m/s 707 mmHg 41%
    23:00 +34°C° 0 mm 7 m/s 707 mmHg 48%

    22 Juin, Samedi

    Heure Température Précipitation Vent Pression Humidité
    00:00 +34°C° 0 mm 6 m/s 707 mmHg 46%
    01:00 +33°C° 0 mm 6 m/s 707 mmHg 45%
    02:00 +33°C° 0 mm 6 m/s 707 mmHg 44%
    03:00 +33°C° 0 mm 6 m/s 707 mmHg 45%
    04:00 +32°C° 0 mm 6 m/s 707 mmHg 46%
    05:00 +32°C° 0 mm 5 m/s 707 mmHg 47%
    06:00 +32°C° 0 mm 5 m/s 708 mmHg 49%
    07:00 +32°C° 0 mm 6 m/s 708 mmHg 50%
    08:00 +33°C° 0 mm 6 m/s 709 mmHg 52%
    09:00 +34°C° 0 mm 6 m/s 709 mmHg 47%
    10:00 +36°C° 0 mm 7 m/s 709 mmHg 43%
    11:00 +39°C° 0 mm 8 m/s 709 mmHg 38%
    12:00 +39°C° 0 mm 7 m/s 709 mmHg 36%
    13:00 +40°C° 0 mm 7 m/s 708 mmHg 33%
    14:00 +40°C° 0 mm 6 m/s 708 mmHg 31%
    15:00 +41°C° 0 mm 5 m/s 707 mmHg 29%
    16:00 +41°C° 0 mm 5 m/s 707 mmHg 28%
    17:00 +41°C° 0 mm 4 m/s 707 mmHg 26%
    18:00 +40°C° 0.1 mm 4 m/s 707 mmHg 28%
    19:00 +38°C° 0.1 mm 3 m/s 707 mmHg 30%
    20:00 +37°C° 0.1 mm 3 m/s 707 mmHg 32%
    21:00 +37°C° 0 mm 4 m/s 707 mmHg 34%
    22:00 +36°C° 0 mm 4 m/s 708 mmHg 37%
    23:00 +35°C° 0 mm 5 m/s 708 mmHg 40%

    23 Juin, Dimanche

    Heure Température Précipitation Vent Pression Humidité
    00:00 +34°C° 0.1 mm 5 m/s 708 mmHg 45%
    01:00 +33°C° 0.1 mm 6 m/s 708 mmHg 50%
    02:00 +30°C° 0.1 mm 6 m/s 707 mmHg 56%
    03:00 +29°C° 1.2 mm 6 m/s 708 mmHg 62%
    04:00 +28°C° 1.2 mm 7 m/s 708 mmHg 68%
    05:00 +27°C° 1.2 mm 7 m/s 708 mmHg 73%
    06:00 +28°C° 0.3 mm 7 m/s 709 mmHg 67%
    07:00 +28°C° 0.3 mm 7 m/s 709 mmHg 61%
    08:00 +29°C° 0.3 mm 7 m/s 710 mmHg 54%
    09:00 +29°C° 0 mm 8 m/s 709 mmHg 52%
    10:00 +29°C° 0 mm 8 m/s 709 mmHg 50%
    11:00 +31°C° 0 mm 8 m/s 709 mmHg 48%
    12:00 +32°C° 0 mm 8 m/s 709 mmHg 44%
    13:00 +34°C° 0 mm 7 m/s 709 mmHg 40%
    14:00 +35°C° 0 mm 7 m/s 708 mmHg 36%
    15:00 +35°C° 0 mm 6 m/s 708 mmHg 37%
    16:00 +35°C° 0 mm 6 m/s 708 mmHg 38%
    17:00 +34°C° 0 mm 5 m/s 708 mmHg 39%
    18:00 +33°C° 0 mm 5 m/s 708 mmHg 43%
    19:00 +33°C° 0 mm 5 m/s 708 mmHg 46%
    20:00 +32°C° 0 mm 5 m/s 708 mmHg 49%
    21:00 +30°C° 0 mm 5 m/s 708 mmHg 52%
    22:00 +30°C° 0 mm 5 m/s 709 mmHg 54%
    23:00 +29°C° 0 mm 6 m/s 709 mmHg 57%
    Voir plus